User: anonymous   Login
Location: Unspecified
(0.0000°N, 0.0000°E)
Time: 01:49:26
(UTC+02:00)
Language:

Resurs 1-3 - Orbit

View from above orbital plane
View from above orbital plane
View from above satellite
View from above satellite

Ground track
Ground track

The orbit data is extracted from the following two-line orbital elements,

1 23342U 94074A   16151.95940315 +.00000086 +00000-0 +18793-4 0  9994
2 23342 098.1206 181.3178 0000844 102.7774 257.3531 14.79172478161009
Epoch (UTC): 30 May 2016 23:01:32
Eccentricity: 0.0000844
inclination: 98.1206°
perigee height: 631 km
apogee height: 632 km
right ascension of ascending node: 181.3178°
argument of perigee: 102.7774°
revolutions per day: 14.79172478
mean anomaly at epoch: 257.3531°
orbit number at epoch: 16100

The dashed part of the orbit path shows where the satellite is in the earth's shadow,  

DLR